THORAD AGENA D DEB, 6014

Orbit data source: Space-Track

THORAD AGENA D DEB, 6014 is space debris in SSO originally from a launch on Wed, 08 Apr 1970 UTC launched from the Air Force Western Test Range (AFWTR). Debris objects in space refer to the collection of defunct objects orbiting the Earth. Examples of debris include non-operational satellites, rocket bodies, and fragments generated from explosions, collisions, or faulty payload assembly.

Loading next visibility...
Identifier
6014, 1970-025MR
Orbit
SSO
Country
Flag of USUS
Related business
Manufacturer
Unknown
Mission
Spacecraft
Bus & Motor
Unknown
Mass
Unknown
Launch date (UTC)
1970-04-08 (56 years ago)
Launch vehicle
Unknown
Launch site
Air Force Western Test Range (AFWTR)
Object type
Payload
Rocket body
Debris
Shape & HBR
Unknown shape, 0.1 m
Radar Cross Section
Small (<0.1 m²)

Expand to show TLE details & history
Last TLE update: 13 hours ago

TLE from 13 hours ago
0 THORAD AGENA D DEB
1 06014U 70025MR  25287.23343828  .00003295  00000-0  20942-2 0  9990
2 06014 100.0216  21.4425 0052170  88.2697 272.4441 14.03914307784517
Epoch: 2025-10-14T05:36Z
TLE epoch observation values (Epoch: 2025-10-14T05:36:09.067Z)
Latitude
0.00001°
Longitude
-85.62009°
Altitude
881.702 km
Speed
7.412 km/s
True Right ascension
01h 25m 46s
True Declination
0° 00' 00"
Sunlit
Object was in full shadow at epoch
Visualization orbit readout
Latitude
Unknown
Longitude
Unknown
Altitude
Unknown
Speed
Unknown
Apparent Right ascension
Unknown
Apparent Declination
Unknown
Sunlit
N/A
Visualization observer readout
Local Sidereal Time
12:59:14
Azimuth
Unknown
Elevation
Unknown
Doppler factor
Unknown
Orbital elements
Apogee altitude
915.372 km
Perigee altitude
839.666 km
Semi-major axis
7,255.656 km
Eccentricity
0.00522
Inclination
100.0216°
RAAN
21.4425°
Arg. of periapsis
88.2697°
True anomaly
271.84666°
Mean anomaly
272.4441°
Eccentric anomaly
272.1454°
Mean motion
3.51179 °/min
Orbital period
102.51 mins
BSTAR
0.0020942

Documentation

Showing up to 5 results
|